Find Globalstar M046

NORAD ID: 25651 Int'l Des: 1999-012 Owner: GLOBT Country: US Constellation: globalstar operational
LEOCIRCULAR

Aktuelle Ansicht

3D-Globus wird geladen...

Über Globalstar M046

Beschreibung wird geladen...

Nächste Überflüge

Passes for default location (London). Set your location on the main map for personalized predictions.

Höhenverlauf

Loading altitude history...

Zweizeiliger Elementsatz

1 25651U 99012C 26146.01525034 -.00000180 00000-0 -10104-2 0 9998
2 25651 52.0076 16.5450 0001338 191.6598 308.8151 12.09421585225143
Epoch: 26. Mai 2026 • Age: 17 hours

Aktueller Status

Höhe 1641.9 km
Geschwindigkeit 7.05 km/s
Subsatellitenpunkt -7.55°S, 136.49°W
Startdatum 15. März 1999
Alter 27.1 years
Typ communications

Technische Details

Klassifizierung Payload
Masse 450.00 kg
Trockenmasse 380.00 kg
Gesamtmasse 450.00 kg
Länge 1.50 m
Durchmesser 0.60 m
Spannweite 12.00 m
Form Box + 2 Pan
Hersteller LOR
Bus-Typ LS-400
Phasenstatus In Orbit
Besitzer/Staat GLOBT/US

Most Searched